This is the latest recevied weather packets stored in our database for station/object KE5YIM-13. If no packets are shown the sender has not sent any weather packets the latest 10 day(s).
| Time | Temp. | Humidity | Pressure | Rain* | Wind** | Luminosity | Snow |
|---|---|---|---|---|---|---|---|
| 1777764278 | 13.89° C | 53% | 1011.1 hPa | 0 mm | - | 16 W/m² | - |
| 1777763975 | 13.89° C | 52% | 1010.8 hPa | 0 mm | - | 29 W/m² | - |
| 1777763672 | 13.89° C | 52% | 1011.2 hPa | 0 mm | - | 35 W/m² | - |
| 1777763371 | 13.89° C | 52% | 1011 hPa | 0 mm | - | 36 W/m² | - |
| 1777763068 | 13.89° C | 49% | 1011 hPa | 0 mm | - | 42 W/m² | - |
| 1777762766 | 14.44° C | 48% | 1010.9 hPa | 0 mm | - | 47 W/m² | - |
| 1777762462 | 14.44° C | 50% | 1010.9 hPa | 0 mm | - | 61 W/m² | - |
| 1777762159 | 14.44° C | 50% | 1011 hPa | 0 mm | - | 57 W/m² | - |
| 1777761855 | 14.44° C | 49% | 1010.9 hPa | 0 mm | - | 63 W/m² | - |
| 1777761552 | 14.44° C | 46% | 1010.9 hPa | 0 mm | - | 83 W/m² | - |
| 1777761250 | 15° C | 47% | 1010.9 hPa | 0 mm | - | 84 W/m² | - |
| 1777760948 | 14.44° C | 47% | 1010.9 hPa | 0 mm | - | 97 W/m² | - |
| 1777760645 | 14.44° C | 46% | 1010.6 hPa | 0 mm | - | 105 W/m² | - |
| 1777760340 | 14.44° C | 49% | 1010.7 hPa | 0 mm | - | 127 W/m² | - |
| 1777760037 | 15° C | 44% | 1010.7 hPa | 0 mm | - | 121 W/m² | - |
| 1777759734 | 15.56° C | 44% | 1010.7 hPa | 0 mm | - | 109 W/m² | - |
| 1777759430 | 15.56° C | 49% | 1010.7 hPa | 0 mm | - | 108 W/m² | - |
| 1777759127 | 15° C | 49% | 1010.7 hPa | 0 mm | - | 209 W/m² | - |
| 1777758824 | 15° C | 48% | 1010.8 hPa | 0 mm | - | 143 W/m² | - |
| 1777758521 | 15° C | 51% | 1010.8 hPa | 0 mm | - | 199 W/m² | - |
| 1777758217 | 15° C | 48% | 1010.9 hPa | 0 mm | - | 108 W/m² | - |
| 1777757915 | 15° C | 48% | 1010.7 hPa | 0 mm | - | 161 W/m² | - |
| 1777757612 | 15° C | 49% | 1010.7 hPa | 0 mm | - | 202 W/m² | - |
| 1777757311 | 15° C | 50% | 1010.7 hPa | 0 mm | - | 293 W/m² | - |
| 1777757009 | 15° C | 51% | 1010.6 hPa | 0 mm | - | 175 W/m² | - |
* Rain latest hour (hover to see other rain measurements)
** Current wind speed in m/s (hover to see current wind gust speed)